FENGYUN 1C DEB

Satellite information

Favourite Embed

Satellite Type and Status

DEBRISIN ORBIT

Key statistics

Satellite FENGYUN 1C DEB at a glance.

Uptime

9715

Days in orbit

Revolutions

≈ 14.1

Per day

Orbit

SSO

Sun Synchronous Orbit

Inclination

98.7

Latest

Satellite identification and parameters

Extended collection of information and parameters for FENGYUN 1C DEB.

Object identification

Identified? True

Debris? True

Object name: FENGYUN 1C DEB

International designator: 1999-025XM

Object number (NORAD): 30252

Object ID (CCSDS): 30252

Country: PEOPLES REPUBLIC OF CHINA (PRC)

Current information (Y/N): Y

RCS size: SMALL

Orbital parameters

Period: 102.149 minutes

Inclination: 98.7437 deg

SMA: 7238.494 km

Apoapsis: 908.095 km

Periapsis: 812.624 km

RAAN: 2.359 deg

Eccentricy: 0.00659469

Argument of periapsis: 239.9125 deg

Mean anomaly: 136.6953 deg

Mean motion: 14.09712049 rev/day

Mean motion (dot): 0.00001238 rev/day2

B* drag term: 0.00071554616 1/REarth

Two-line elements (TLE)

Creation date: Dec. 13, 2025, 5:47 p.m.

Reference frame: TEME

Reference center: EARTH

Epoch: Dec. 13, 2025, 8:06 a.m. UTC

TLE line 0: 0 FENGYUN 1C DEB

TLE line 1: 1 30252U 99025XM 25347.33787490 .00001238 00000-0 71555-3 0 9999

TLE line 2: 2 30252 98.7437 2.3590 0065947 239.9125 136.6953 14.09712049969748

Live tracking on map

Real-time ground track for satellite FENGYUN 1C DEB.

In-orbit conjunctions

A list of the most updated potential collisions computed for object FENGYUN 1C DEB.

Target Orbit TCA Probability of collision Miss distance Type
FENGYUN 1C DEB SSO 2025-05-25 07:48:08 0.0002434299 113.0 (m) DEBRIS
CZ-4 DEB SSO 2025-05-04 08:20:59 0.0001137173 351.0 (m) DEBRIS
THOR BURNER 2 R/B SSO 2024-09-27 10:26:47 0.0002315055 648.0 (m) ROCKET BODY

Associated space launch

Chinese polar orbiting meteorological satellite

FENGYUN 1C DEB was lifted into orbit during the mission ‘Long March 4B | Feng Yun 1C’, on board a Long March 4B space rocket.

The launch took place on May 10, 1999, 1:33 a.m. from Launch Complex 7.

For more information about the launch, click the button.

Launch to space Long March 4B | Feng Yun 1C
Long March 4B | Feng Yun 1C

Agency: N/A

Status: Launch Successful

Launch date: May 10, 1999, 1:33 a.m. UTC

Rocket: Long March 4B

Launch pad: Launch Complex 7

Location: Taiyuan Satellite Launch Center, People's Republic of China

...

Latest news about this satellite

There are no fresh news available about this satellite. Check back as we update our databases every day.


Newsletter sign-up

Weekly statistics, charts and insights to help you stay on top of the space industry.